Location: Burzi?i
(45.0869°N, 16.0577°E)
Time: 11:49:31
(UTC+00:00)

Cosmos 1408 - Pass Details

Date: 29 October 2020
Orbit: 470 x 492 km, 82.6° (Epoch: 27 November)

Event Time Altitude Azimuth Distance (km) Brightness Sun altitude
Rises 16:38:34 0° 3° (N) 2,557 6.1 -9.5°
Reaches altitude 10° 16:40:57 10° 17° (NNE) 1,676 5.0 -10.0°
Maximum altitude 16:44:01 25° 74° (ENE) 1,026 3.6 -10.5°
Drops below altitude 10° 16:47:05 10° 131° (SE) 1,675 4.9 -11.0°
Sets 16:49:27 0° 145° (SE) 2,554 6.0 -11.4°
